When you browse on this site, cookies collect data to enhance your experience and personalize the content and advertising you see.
Visit our Privacy Policy to learn more. By continuing to use the site, you agree to this use of cookies and data.
  • In Latvia
  • List of Countries
  • For 7 days
  • Water Temperature
  • Weather Map
  • Weather Widgets
  • user-avatar
    Login

    Hourly Weather Ndjbele

    Today, 16 February, Sunday

    Time Temperature Precipitation Wind Pressure Humidity
    00:00 +18°C° 0 mm 0 mps 715 mmHg 27%
    01:00 +18°C° 0 mm 0 mps 714 mmHg 32%
    02:00 +17°C° 0 mm 0 mps 714 mmHg 36%
    03:00 +16°C° 0 mm 0 mps 714 mmHg 42%
    04:00 +16°C° 0 mm 0 mps 714 mmHg 48%
    05:00 +16°C° 0 mm 0 mps 714 mmHg 61%
    06:00 +19°C° 0 mm 0 mps 715 mmHg 54%
    07:00 +21°C° 0 mm 0 mps 716 mmHg 47%
    08:00 +24°C° 0 mm 0 mps 717 mmHg 40%
    09:00 +30°C° 0 mm 1 mps 716 mmHg 29%
    10:00 +33°C° 0 mm 1 mps 716 mmHg 18%
    11:00 +38°C° 0 mm 2 mps 716 mmHg 6%
    12:00 +39°C° 0 mm 2 mps 715 mmHg 6%
    13:00 +40°C° 0 mm 2 mps 714 mmHg 5%
    14:00 +41°C° 0 mm 2 mps 714 mmHg 4%
    15:00 +40°C° 0 mm 1 mps 713 mmHg 6%
    16:00 +37°C° 0 mm 1 mps 713 mmHg 8%
    17:00 +36°C° 0 mm 1 mps 713 mmHg 9%
    18:00 +33°C° 0 mm 1 mps 713 mmHg 11%
    19:00 +29°C° 0 mm 1 mps 714 mmHg 12%
    20:00 +26°C° 0 mm 1 mps 714 mmHg 13%
    21:00 +24°C° 0 mm 1 mps 715 mmHg 23%
    22:00 +23°C° 0 mm 1 mps 715 mmHg 33%
    23:00 +19°C° 0 mm 0 mps 715 mmHg 43%

    Tomorrow, 17 February, Monday

    Time Temperature Precipitation Wind Pressure Humidity
    00:00 +18°C° 0 mm 0 mps 715 mmHg 61%
    01:00 +20°C° 0 mm 1 mps 715 mmHg 78%
    02:00 +20°C° 0 mm 1 mps 715 mmHg 95%
    03:00 +20°C° 0 mm 1 mps 715 mmHg 95%
    04:00 +21°C° 0 mm 1 mps 715 mmHg 94%
    05:00 +22°C° 0 mm 1 mps 715 mmHg 93%
    06:00 +23°C° 0 mm 1 mps 716 mmHg 89%
    07:00 +24°C° 0 mm 1 mps 716 mmHg 85%
    08:00 +24°C° 0 mm 1 mps 717 mmHg 80%
    09:00 +28°C° 0 mm 1 mps 717 mmHg 66%
    10:00 +31°C° 0 mm 1 mps 717 mmHg 51%
    11:00 +35°C° 0 mm 1 mps 716 mmHg 36%
    12:00 +36°C° 0 mm 1 mps 716 mmHg 29%
    13:00 +39°C° 0 mm 1 mps 715 mmHg 23%
    14:00 +41°C° 0 mm 1 mps 715 mmHg 16%
    15:00 +39°C° 0 mm 1 mps 714 mmHg 17%
    16:00 +37°C° 0 mm 1 mps 714 mmHg 19%
    17:00 +35°C° 0 mm 1 mps 713 mmHg 20%
    18:00 +30°C° 0 mm 0 mps 714 mmHg 26%
    19:00 +27°C° 0 mm 0 mps 714 mmHg 32%
    20:00 +24°C° 0 mm 0 mps 714 mmHg 38%
    21:00 +23°C° 0 mm 0 mps 715 mmHg 51%
    22:00 +24°C° 0 mm 1 mps 715 mmHg 64%
    23:00 +23°C° 0 mm 1 mps 715 mmHg 77%

    Day after tomorrow, 18 February, Tuesday

    Time Temperature Precipitation Wind Pressure Humidity
    00:00 +22°C° 0 mm 1 mps 715 mmHg 84%
    01:00 +22°C° 0 mm 1 mps 715 mmHg 91%
    02:00 +19°C° 0 mm 0 mps 715 mmHg 98%
    03:00 +19°C° 0 mm 0 mps 715 mmHg 98%
    04:00 +19°C° 0 mm 0 mps 715 mmHg 98%
    05:00 +19°C° 0 mm 0 mps 715 mmHg 98%
    06:00 +21°C° 0 mm 0 mps 715 mmHg 89%
    07:00 +23°C° 0 mm 0 mps 716 mmHg 80%
    08:00 +25°C° 0 mm 0 mps 717 mmHg 70%
    09:00 +30°C° 0 mm 1 mps 717 mmHg 58%
    10:00 +33°C° 0 mm 1 mps 717 mmHg 46%
    11:00 +36°C° 0 mm 1 mps 716 mmHg 33%
    12:00 +37°C° 0 mm 1 mps 716 mmHg 28%
    13:00 +40°C° 0 mm 1 mps 715 mmHg 23%
    14:00 +42°C° 0 mm 1 mps 715 mmHg 17%
    15:00 +40°C° 0 mm 1 mps 714 mmHg 19%
    16:00 +37°C° 0 mm 1 mps 714 mmHg 22%
    17:00 +36°C° 0 mm 1 mps 713 mmHg 24%
    18:00 +33°C° 0 mm 1 mps 713 mmHg 32%
    19:00 +30°C° 0 mm 1 mps 714 mmHg 41%
    20:00 +27°C° 0 mm 1 mps 714 mmHg 49%
    21:00 +26°C° 0 mm 1 mps 714 mmHg 61%
    22:00 +24°C° 0 mm 1 mps 715 mmHg 73%
    23:00 +23°C° 0 mm 1 mps 715 mmHg 85%

    19 February, Wednesday

    Time Temperature Precipitation Wind Pressure Humidity
    00:00 +23°C° 0 mm 1 mps 715 mmHg 89%
    01:00 +22°C° 0 mm 1 mps 714 mmHg 94%
    02:00 +20°C° 0 mm 0 mps 714 mmHg 98%
    03:00 +20°C° 0 mm 0 mps 714 mmHg 98%
    04:00 +19°C° 0 mm 0 mps 714 mmHg 98%
    05:00 +19°C° 0 mm 0 mps 714 mmHg 99%
    06:00 +21°C° 0 mm 0 mps 714 mmHg 91%
    07:00 +25°C° 0 mm 1 mps 715 mmHg 83%
    08:00 +26°C° 0 mm 1 mps 715 mmHg 76%
    09:00 +30°C° 0 mm 1 mps 716 mmHg 61%
    10:00 +34°C° 0 mm 1 mps 716 mmHg 46%
    11:00 +39°C° 0 mm 1 mps 716 mmHg 31%
    12:00 +40°C° 0 mm 1 mps 715 mmHg 27%
    13:00 +38°C° 0 mm 0 mps 714 mmHg 24%
    14:00 +39°C° 0 mm 0 mps 713 mmHg 20%
    15:00 +40°C° 0 mm 1 mps 713 mmHg 23%
    16:00 +37°C° 0 mm 1 mps 712 mmHg 26%
    17:00 +36°C° 0 mm 2 mps 712 mmHg 29%
    18:00 +34°C° 0 mm 2 mps 712 mmHg 40%
    19:00 +30°C° 0 mm 1 mps 713 mmHg 50%
    20:00 +28°C° 0 mm 1 mps 713 mmHg 60%
    21:00 +26°C° 0 mm 1 mps 713 mmHg 69%
    22:00 +25°C° 0 mm 1 mps 714 mmHg 79%
    23:00 +24°C° 0 mm 1 mps 714 mmHg 88%

    20 February, Thursday

    Time Temperature Precipitation Wind Pressure Humidity
    00:00 +23°C° 0 mm 1 mps 714 mmHg 91%
    01:00 +23°C° 0 mm 1 mps 713 mmHg 95%
    02:00 +20°C° 0 mm 0 mps 713 mmHg 98%
    03:00 +20°C° 0 mm 0 mps 713 mmHg 98%
    04:00 +20°C° 0 mm 0 mps 713 mmHg 99%
    05:00 +19°C° 0 mm 0 mps 713 mmHg 99%
    06:00 +23°C° 0 mm 1 mps 713 mmHg 90%
    07:00 +25°C° 0 mm 1 mps 714 mmHg 82%
    08:00 +26°C° 0 mm 1 mps 714 mmHg 74%
    09:00 +29°C° 0 mm 1 mps 714 mmHg 63%
    10:00 +32°C° 0 mm 1 mps 715 mmHg 51%
    11:00 +36°C° 0 mm 2 mps 715 mmHg 40%
    12:00 +36°C° 0 mm 2 mps 714 mmHg 38%
    13:00 +35°C° 0 mm 1 mps 713 mmHg 36%
    14:00 +36°C° 0 mm 1 mps 712 mmHg 34%
    15:00 +34°C° 0 mm 1 mps 712 mmHg 39%
    16:00 +33°C° 0 mm 1 mps 712 mmHg 44%
    17:00 +31°C° 0 mm 1 mps 712 mmHg 49%
    18:00 +30°C° 0.2 mm 1 mps 712 mmHg 58%
    19:00 +28°C° 0.2 mm 1 mps 713 mmHg 66%
    20:00 +27°C° 0.2 mm 1 mps 713 mmHg 74%
    21:00 +26°C° 0 mm 1 mps 713 mmHg 81%
    22:00 +25°C° 0 mm 1 mps 714 mmHg 87%
    23:00 +24°C° 0 mm 1 mps 714 mmHg 93%

    21 February, Friday

    Time Temperature Precipitation Wind Pressure Humidity
    00:00 +24°C° 0.1 mm 1 mps 714 mmHg 95%
    01:00 +23°C° 0.1 mm 1 mps 713 mmHg 97%
    02:00 +23°C° 0.1 mm 1 mps 713 mmHg 99%
    03:00 +20°C° 0.1 mm 0 mps 713 mmHg 99%
    04:00 +20°C° 0.1 mm 0 mps 713 mmHg 99%
    05:00 +20°C° 0.1 mm 0 mps 713 mmHg 99%
    12:00 +36°C° 0 mm 2 mps 714 mmHg 41%
    13:00 +36°C° 0 mm 2 mps 713 mmHg 41%
    14:00 +36°C° 0 mm 2 mps 712 mmHg 41%
    15:00 +32°C° 0.6 mm 1 mps 712 mmHg 53%
    16:00 +29°C° 0.6 mm 1 mps 712 mmHg 64%
    17:00 +26°C° 0.6 mm 1 mps 712 mmHg 76%
    18:00 +25°C° 1.6 mm 1 mps 712 mmHg 82%
    19:00 +25°C° 1.6 mm 1 mps 713 mmHg 87%
    20:00 +24°C° 1.6 mm 1 mps 714 mmHg 93%
    21:00 +24°C° 2.9 mm 1 mps 714 mmHg 94%
    22:00 +24°C° 2.9 mm 1 mps 715 mmHg 95%
    23:00 +24°C° 2.9 mm 1 mps 715 mmHg 96%
    Show more